Starlink 5733

operational
NORAD ID: 56925 Int'l Des: 2023-083 Owner: SPXS Country: US Constellation: starlink
LEOCIRCULAR

About Starlink 5733

Description loading...

Live Position

Loading 3D Globe...

Upcoming Passes

Altitude History

Altitude vs Time

uPlot chart will show altitude changes over time

Two-Line Element Set

1 56925U 23083BB 25278.46515809 -.00000804 00000-0 -44448-4 0 9997
2 56925 43.0020 191.9579 0001258 273.3804 86.6895 15.02534345128478
Epoch: Oct 5, 2025 • Age: 8 hours

Current Status

Altitude 566.4 km
Velocity 7.58 km/s
Sub-Earth Point -29.89°S, 146.32°W
Launch Date Jun 12, 2023
Age 2.3 years
Type internet

Technical Details

Classification Payload
Mass 305.00 kg
Dry Mass 290.00 kg
Total Mass 305.00 kg
Length 0.20 m
Diameter 2.80 m
Span 9.00 m
Shape Box + pan
Manufacturer SPXS
Bus Type Starlink
Phase Status In Orbit
Owner/State SPXS/US

Large Constellations

Loading constellations...